軌道要素
Epoch 2017 Sept. 4.0 TT = JDT 2458000.5
T 2017 Sept. 16.07188 TT Rudenko
q 3.0965720 (2000.0) P Q
n 0.13064785 Peri. 129.55019 -0.94965105 +0.22113467
a 3.8465188 Node 64.26659 -0.30415048 -0.82070795
e 0.1949677 Incl. 14.26381 +0.07520224 -0.52681868
P 7.54
From 1642 observations 2010 Apr. 16-Sept. 4, mean residual 0".6.
|